Location: Hains Lake
(37.8540°N, 99.8578°W)
Time: 23:21:40
(UTC+00:00)

Orbus 7S? - Pass Details

Date: 11 December 2019
Orbit: 335 x 6436 km, 56.9° (Epoch: 11 November)

Event Time Altitude Azimuth Distance (km) Brightness Sun altitude
Exits shadow 13:00:19 - 257° (WSW) 1,676 5.3 -8.7°
Reaches altitude 10° 13:00:53 10° 263° (W) 1,438 4.9 -8.6°
Maximum altitude 13:03:08 21° 317° (NW) 838 3.7 -8.2°
Drops below altitude 10° 13:05:10 10° 13° (NNE) 1,282 5.1 -7.9°
Sets 13:07:25 0° 32° (NNE) 2,252 6.6 -7.5°
